COSMOS 2251 DEB, 34434

Orbit data source: Space-Track

COSMOS 2251 DEB, 34434 is space debris in LEO originally from a launch on Wed, 16 Jun 1993 UTC launched from the Plesetsk Missile And Space Complex (PKMTR). The debris from Iridium 33, an American commercial communications satellite, has been tracked extensively since its accidental collision with the defunct Russian satellite Cosmos 2251 in 2009. This event, occurring at high speed in low Earth orbit (LEO), generated thousands of pieces of space debris, significantly increasing the risk of further collisions. The Iridium 33 debris cloud has impacted space traffic management and orbital debris mitigation strategies, making it a subject of ongoing study in space situational awareness.

Loading next visibility...
Identifier
34434, 1993-036SB
Orbit
LEO
Country
Flag of CISCIS
Related business
Manufacturer
Unknown
Mission
Spacecraft
Bus & Motor
Unknown
Mass
Unknown
Launch date (UTC)
1993-06-16 (33 years ago)
Launch vehicle
Unknown
Launch site
Plesetsk Missile And Space Complex (PKMTR)
Object type
Payload
Rocket body
Debris
Shape & HBR
Unknown shape, 0.1 m
Radar Cross Section
Small (<0.1 m²)

Expand to show TLE details & history
Last TLE update: 8 hours ago

TLE from 8 hours ago
0 COSMOS 2251 DEB
1 34434U 93036SB  25355.52575644  .00002558  00000-0  15501-2 0  9991
2 34434  74.0622 355.1821 0273872 130.3904 337.6702 13.89857681840887
Epoch: 2025-12-21T12:37Z
TLE epoch observation values (Epoch: 2025-12-21T12:37:05.356Z)
Latitude
67.07753°
Longitude
-146.62366°
Altitude
756.045 km
Speed
7.577 km/s
True Right ascension
08h 51m 56s
True Declination
66° 57' 14"
Sunlit
Object was in full shadow at epoch
Visualization orbit readout
Latitude
Unknown
Longitude
Unknown
Altitude
Unknown
Speed
Unknown
Apparent Right ascension
Unknown
Apparent Declination
Unknown
Sunlit
N/A
Visualization observer readout
Local Sidereal Time
19:31:04
Azimuth
Unknown
Elevation
Unknown
Doppler factor
Unknown
Orbital elements
Apogee altitude
1,126.862 km
Perigee altitude
726.738 km
Semi-major axis
7,304.937 km
Eccentricity
0.02739
Inclination
74.0622°
RAAN
355.1821°
Arg. of periapsis
130.3904°
True anomaly
336.43898°
Mean anomaly
337.6702°
Eccentric anomaly
337.05855°
Mean motion
3.47631 °/min
Orbital period
103.56 mins
BSTAR
0.0015501

Documentation

Showing up to 5 results
|